Regional Weather Roundup
Issued by NWS Grand Forks, ND

Home | Current Version | Previous Version | Graphics & Text | Print | Product List | Glossary On
Versions: 1 2 3 4 5 6 7 8 9 10 11 12 13 14 15 16 17 18 19 20 21 22 23 24 25 26 27 28 29 30 31 32 33 34 35 36 37 38 39 40 41 42 43 44 45 46 47 48 49 50
000
ASUS43 KFGF 130531
RWRFGF
PRAIRIE TO PINES  WEATHER ROUNDUP
NATIONAL WEATHER SERVICE EASTERN NORTH DAKOTA/GRAND FORKS ND
1100 PM CST TUE DEC 12 2017

 **SATELLITE DATA USED TO AUGMENT SKY COVER AT AUTOMATED STATIONS**
 *****  WEATHER ACROSS EASTERN NORTH DAKOTA  *****

CITY           SKY/WX    TMP DP  RH WIND       PRES   REMARKS
GRAND FORKS    CLOUDY    32  29  88 S5        29.41S
GRAND FRKS AFB LGT RAIN  41  28  60 N12       29.40F
GRAND FRKS NWS   N/A     32 N/A N/A MISG        N/A
DEVILS LAKE    CLOUDY    39  27  62 NW15      29.45R
FARGO          FAIR      33  28  81 S7        29.42F
WAHPETON ARPT  FAIR      28  25  86 SE3       29.45F
$$

 ***** WEATHER ACROSS CENTRAL AND WESTERN NORTH DAKOTA  *****

CITY           SKY/WX    TMP DP  RH WIND       PRES   REMARKS
BISMARCK       FAIR      48  26  42 NW23G37   29.57S
MINOT          CLOUDY    42  31  64 W25G39    29.60R
JAMESTOWN      FAIR      42  26  53 W17       29.44F
MINOT AFB      FAIR      40  30  68 NW29G36   29.58R
GARRISON         N/A     42  30  62 NW33G41   29.60R
WILLISTON      FAIR      45  28  51 NW25G33   29.78R
DICKINSON      MOCLDY    46  27  47 NW37G46   29.72R
HETTINGER      FAIR      48  20  32 NW25G35   29.77R
$$

 *****  OTHER AIRPORT OBSERVATIONS IN OUR AREA  *****

CITY           SKY/WX    TMP DP  RH WIND       PRES   REMARKS
WALHALLA       LGT RAIN  37  37 100 NW10      29.44R
GRAFTON AIRPOR MOCLDY    34  32  93 W10       29.44R
VALLEY CITY AR FAIR      37  30  75 W16       29.43F
CANDO          CLOUDY    37  30  75 NW13G22   29.50R
CAVALIER APRT  LGT RAIN  37  30  75 NW15G22   29.43R
GWINNER          N/A     36  28  75 W12       29.44F
SHEYENNE NWR     N/A     33  28  80 SW9       29.95
ROLLA          RAIN      36  34  93 NW29G40   29.48R
 ***** THE ABOVE OBSERVATIONS ARE NON NWS ARE NOT QUALITY
       CONTROLLED AND MAY MIS-REPORT RAIN FOR SNOW...
$$

  *****  WEATHER ACROSS NORTHERN MINNESOTA  *****

CITY           SKY/WX    TMP DP  RH WIND       PRES   REMARKS
FLAG ISLAND    CLOUDY    14  10  85 E8        29.49R WCI   3
WARROAD        CLOUDY    18  14  86 E7        29.44F WCI   8
ROSEAU         FAIR      19  16  86 E8        29.42F WCI   9
HALLOCK        MOCLDY    28  27  93 CALM      29.41R
THF RVR FALLS  CLOUDY    30  27  88 S6        29.41F WCI  24
BAUDETTE       CLOUDY    15  13  91 SE12      29.47F WCI   2
WASKISH        CLOUDY    18  16  93 SE9       29.46F WCI   6
CROOKSTON      CLOUDY    32  28  86 S6        29.41F
STEPHEN NDAWN    N/A     30  27  86 S5          N/A
GREENBUSH NDAW   N/A     25  23  93 E8          N/A  WCI  16
$$
  *****  WEATHER ACROSS CENTRAL AND WEST MINNESOTA  *****

CITY           SKY/WX    TMP DP  RH WIND       PRES   REMARKS
FOSSTON        MOCLDY    30  25  80 S7        29.42S WCI  23
BEMIDJI        FAIR      19  17  92 SE8       29.44F WCI   8
PARK RAPIDS    FAIR      19  16  88 SE8       29.46F WCI   9
ELBOW LAKE     FAIR      30  27  88 S9        29.46F WCI  21
WADENA         FAIR      23  23 100 SE3       29.45F
DETROIT LAKES  FAIR      30  27  86 S6        29.43F WCI  24
MOORHEAD       FAIR      30  27  86 CALM      29.44F
FERGUS FALLS   FAIR      30  27  86 SE8       29.48F WCI  23
MORRIS MN      FAIR      28  25  86 S9        29.47F WCI  20
STAPLES        FAIR      19  19 100 S8        29.48F WCI   9
$$
  *****  WEATHER ELSEWHERE ACROSS MINNESOTA  *****

CITY           SKY/WX    TMP DP  RH WIND       PRES   REMARKS
DULUTH         CLOUDY    12  10  92 SE10      29.61F WCI  -1
INTRNTL FALLS  CLOUDY    13   9  84 SE10      29.54F WCI   0
ELY            CLOUDY    12   9  85 SE9       29.60F WCI   0
CLOQUET        FLURRIES  12   9  85 SE6       29.60F WCI   3
WHEATON        FAIR      34  25  69 S5        29.47F
BRAINERD       CLOUDY    21  17  84 SE8       29.53F WCI  11
HIBBING        CLOUDY    11   9  92 SE10      29.59F WCI  -3
ALEXANDRIA     FAIR      32  27  81 S9        29.49F WCI  24
SAINT CLOUD    FAIR      20  18  92 SE6       29.57F WCI  12
MINNEAPOLIS    MOCLDY    26  23  88 SE7       29.63F WCI  18
$$

  *****  WEATHER ACROSS SOUTH DAKOTA  *****

CITY           SKY/WX    TMP DP  RH WIND       PRES   REMARKS
SIOUX FALLS    FAIR      37  25  61 SW6       29.63F
BROOKINGS      FAIR      33  24  69 SW10      29.58  WCI  25
WATERTOWN      FAIR      31  25  78 SW8       29.53F WCI  23
HURON          FAIR      42  26  53 W10       29.60F
SISSETON         N/A     43  27  53 W23       29.45F
ABERDEEN       FAIR      36  27  69 SW9       29.53F
MITCHELL       FAIR      45  24  43 W14       29.64F
PIERRE         FAIR      48  21  34 W16       29.67F
MOBRIDGE       FAIR      51  21  30 NW18      29.57F
RAPID CITY     FAIR      56  10  16 NW44G58   29.87R
$$

  *****  SOME WEATHER IN NEARBY STATES *****

CITY           SKY/WX    TMP DP  RH WIND       PRES   REMARKS
GLASGOW MT     FAIR      43  22  43 NW21G29   29.96R
GREAT FALLS MT FAIR      42   8  24 W10       30.23R
CHEYENNE WY    FAIR      45   6  20 W20G26    30.09F
SCOTTSBLUFF NE FAIR      32  14  47 NW8       30.01R WCI  25
OMAHA NE       FAIR      30  23  75 SE9       29.81F WCI  22
DES MOINES IA  FAIR      28  20  71 S10       29.83F WCI  19
DAVENPORT IA   CLOUDY    26   4  38 S10       29.92F WCI  16
CHICAGO IL     CLOUDY    21   9  59 SW6       29.94F WCI  13
EAU CLAIRE WI  CLOUDY    18  11  74 SE8       29.72F WCI   8
LA CROSSE WI   CLOUDY    25  14  63 S12       29.78F WCI  14
$$

  *****  SOME NATIONAL WEATHER *****

CITY           SKY/WX    TMP DP  RH WIND       PRES   REMARKS
LA GUARDIA NY  MOCLDY    32  15  49 NW23G31   29.46R WCI  19
RALEIGH NC     FAIR      30   8  39 N7        29.83R WCI  23
ATLANTA GA     FAIR      36  19  50 NW14G24   30.00R
NEW ORLEANS LA FAIR      47  40  76 N5        30.19S
OKLAHOMA CITY  FAIR      33  25  72 S10       30.08F WCI  25
ALBUQUERQUE NM FAIR      37   3  24 E5        30.29F
SALT LAKE CITY FOG       25  25 100 NE3       30.44S VSB 1/4
LOS ANGELES CA FAIR      61  41  47 E3        30.04S
BOISE ID       CLOUDY    23  20  88 N5        30.52F WCI  17
SEATTLE WA     MOCLDY    41  33  73 N6        30.39S
$$

*** WEATHER ACROSS MANITOBA...SASKATCHEWAN AND ONTARIO ***
                ***ONTARIO***

CITY           SKY/WX    TMP DP  RH WIND       PRES   REMARKS
GERALDTON      PTCLDY   -17 -22  76 E3        29.81F
THUNDER BAY    FLURRIES   3   0  85 CALM      29.80F
SIOUX LOOKOUT  FLURRIES   5  -2  72 SE6       29.64F WCI  -6
TORONTO        LGT SNOW  12   5  73 NW14      29.61F WCI  -3
BIG TROUT LK   CLEAR    -22 -27  76 SE3       29.81F
PICKLE LAKE    NOT AVBL
DRYDEN         FLURRIES   9   5  85 E6        29.58F WCI  -1
KENORA         FLURRIES  10   9  92 E8        29.52S WCI  -1
$$
                *** MANITOBA***

CITY           SKY/WX    TMP DP  RH WIND       PRES   REMARKS
BRANDON        CLOUDY    36  30  80 NW12      29.54R
DAUPHIN        CLOUDY    21  19  93 SW6       29.57R WCI  14
ISLAND LAKE    FLURRIES   3   0  85 E9        29.67F WCI -11
PILOT MOUND      N/A     36  30  80 NW17G23     N/A
THE PAS        CLOUDY    27  25  93 NW14      29.62R WCI  15
THOMPSON       LGT SNOW   5   1  85 E5        29.68S WCI  -4
WINNIPEG       CLOUDY    19  18  93 NE9       29.49R WCI   9
LYNN LAKE      MOCLDY     5   3  92 N6        29.71R WCI  -6
CHURCHILL      CRYSTALS -17 -22  76 SW5       29.92S WCI -29
GILLAM         CLEAR    -17 -22  76 VRB2      29.82R
$$
                ***SASKATCHEWAN***

CITY           SKY/WX    TMP DP  RH WIND       PRES   REMARKS
ESTEVAN        CLOUDY    37  30  75 NW23      29.68R
KINDERSLEY     CLEAR     36  28  75 NW16G22   30.00R
LLOYDMINSTER   PTCLDY    34  28  80 NW17G24   30.01R WCI  23
PRINCE ALBERT  CLEAR     34  28  80 NW13      29.82R WCI  25
REGINA         PTCLDY    36  30  80 NW21      29.79R
YORKTON        PTCLDY    34  30  86 NW18G28   29.64R WCI  23
N. BATTLEFORD  CLEAR     36  28  75 NW16      29.95R
LA RONGE       CLOUDY    32  28  86 NW13G23   29.80R WCI  22
SASKATOON      PTCLDY    34  28  80 W16       29.88R WCI  23
SWIFT CURRENT  CLEAR     34  25  69 W16G22    29.97R WCI  23
$$
NOTE: THESE ARE AUTOMATED STATIONS WITH LIMITED QUALITY CONTROL
      "FAIR" INDICATES FEW OR NO CLOUDS BELOW 12,000 FEET WITH NO
      SIGNIFICANT WEATHER AND/OR OBSTRUCTIONS TO VISIBILITY.
      SKY/WX - SKY CONDITION AND SIGNIFICANT WEATHER.
      TMP - AIR TEMPERATURE.    DP   - DEWPOINT TEMPERATURE.
      RH  - RELATIVE HUMIDITY.  PRES - PRESSURE.
      HX  - HEAT INDEX.         WCI  - WIND CHILL INDEX.
$




USA.gov is the U.S. government's official web portal to all federal, state and local government web resources and services.